Regional Weather Roundup
Issued by NWS Charleston, SC

Home | Current Version | Previous Version | Text Only | Print | Product List | Glossary On
Versions: 1 2 3 4 5 6 7 8 9 10 11 12 13 14 15 16 17 18 19 20 21 22 23 24 25 26 27 28 29 30 31 32 33 34 35 36 37 38 39 40 41 42 43 44 45 46 47 48 49 50
796
ASUS42 KCHS 210227
RWRCHS

Regional Weather Roundup
National Weather Service Charleston SC
900 PM EST WED NOV 20 2019

NOTE: "fair" indicates few or no clouds below 12,000 feet with no
significant weather and/or obstructions to visibility.

Not all stations are quality controlled. Use data with caution,
especially dewpoint observations.

SCZ027-030-031-034>040-042>050-210300-
...Southeast South Carolina...

CITY           SKY/WX    TMP DP  RH WIND       PRES   REMARKS
N Charleston   FAIR      45  42  89 CALM      30.23R
Waterfront Prk   N/A     55  46  71 CALM      30.08R
Mount Pleasant FAIR      43  43 100 CALM      30.23R
Johns Island   FAIR      45  43  93 CALM      30.24R
Pinopolis        N/A     52  46  82 CALM      30.16R
Moncks Corner  FAIR      41  41 100 CALM      30.23S FOG
Summerville    FAIR      43  43 100 CALM      30.23R
Beaufort MCAS  FAIR      48  44  86 CALM      30.23R
Beaufort Arpt  FAIR      46  43  87 CALM      30.23R
Hilton Head Is FAIR      46  45  93 CALM      30.24R
Walterboro     FAIR      41  37  87 CALM      30.25S
Allendale      FAIR      45  45 100 CALM      30.23S

...Southern Midlands and Pee Dee...

CITY           SKY/WX    TMP DP  RH WIND       PRES   REMARKS
Georgetown     FAIR      41  39  93 CALM      30.24S
Kingstree      FAIR      37  37 100 CALM      30.24S
Orangeburg     FAIR      44  40  85 CALM      30.24R
Barnwell       FAIR      43  41  93 CALM      30.24S
Aiken          FAIR      41  41 100 CALM      30.27R
Manning        FAIR      39  39 100 CALM      30.24R
Columbia       FAIR      44  41  89 W5        30.23R
Sumter         FAIR      44  40  86 CALM      30.23R
Florence       FAIR      42  38  85 CALM      30.24R
Myrtle Beach   FAIR      49  42  77 CALM      30.24R
N Myrtle Beach FAIR      46  42  86 NW5       30.22R

$$

GAZ063-065-086>088-099>101-113>116-118-119-134>141-150-210300-
...Southeast Georgia...

CITY           SKY/WX    TMP DP  RH WIND       PRES   REMARKS
Savannah Arpt  FAIR      49  46  90 CALM      30.24R
Hunter AAF     FAIR      47  43  85 CALM      30.21R
Fort Stewart   FAIR      46  44  91 CALM      30.21R
Statesboro     FAIR      42  40  93 CALM      30.24R
Sylvania       FAIR      44  43  94 CALM      30.24S
Claxton        FAIR      45  44  97 CALM      30.24R FOG
Millen         FAIR      43  40  92 CALM      30.24R
Metter         FAIR      44  43  94 CALM      30.24R
Reidsville     NOT AVBL

...CSRA, Central and far Southeast Georgia...

CITY           SKY/WX    TMP DP  RH WIND       PRES   REMARKS
Thomson        FAIR      41  41  98 CALM      30.24R
Augusta-Bush   FAIR      43  41  93 CALM      30.24R
Augusta-Daniel FAIR      52  40  63 CALM      30.24R
Swainsboro     FAIR      43  43 100 CALM      30.25R
Vidalia        FAIR      48  43  81 CALM      30.24R
Eastman        FAIR      42  41  97 CALM      30.27R
Hazlehurst     FAIR      49  44  83 CALM      30.23R
Alma           FAIR      45  43  93 CALM      30.23R
Waycross       FAIR      47  42  84 CALM      30.23R
Jesup          FAIR      48  45  87 CALM      30.24R
Baxley         FAIR      45  45 100 CALM      30.24R
Brunswick      FAIR      46  46  99 CALM      30.23R
Saint Simons   FAIR      51  45  79 CALM      30.22R

$$

SCZ027-028-034-036>038-045-046-048>050-GAZ119-141-210300-
...Lake and Supplemental Coastal Observations...

STATION/POSITION TIME  TEMP    WIND        PRES    WAVE   SWELL
                       AIR SEA DIR/SP/G            HT/PER HT/PER/DIR
                 (UTC) (F)     (DEG/KT/KT) (MB)    (FT/S) (FT/S/D)
Winyah Bay       0145   47     320/  4     1023.0R
Lake Murray      0150   51        CALM       N/A
Chrlstn Harbor   0142   54 57   10/  2/  3 1023.7R
ACE Basin NERRS  0145   46        CALM     1024.0R
Fort Pulaski     0142   54 58  140/  1/  1 1024.0R
Sapelo Island    0200   47      20/  3     1023.0

$$

ANZ835-935-AMZ111-154-330-350-352-354-370-450-454-472-210300-
...C-MAN and Buoy Observations...

STATION/POSITION TIME  TEMP    WIND        PRES    WAVE   SWELL
                       AIR SEA DIR/SP/G            HT/PER HT/PER/DIR
                 (UTC) (F)     (DEG/KT/KT) (MB)    (FT/S) (FT/S/D)
Buoy 41004       0210      76  360/ 14/ 17 1023.0
Buoy 41008       0150   62 65   30/ 12/ 14 1023.0R   2/11   2/ 80/11
Folly Beach CMAN 0200   53     350/  1/  2 1024.0R
Capers Nearshore NOT AVBL
Fripp Nearshore  0208   58      50/  6/ 10 1024.5R


STATION/POSITION TIME  TEMP    WIND        PRES    WAVE   SWELL
                       AIR SEA DIR/SP/G            HT/PER HT/PER/DIR
                 (UTC) (F)     (DEG/KT/KT) (MB)    (FT/S) (FT/S/D)
5E St. Marys GA  0200      62                N/A     2/12   2/ 80/12
Frying Pan Buoy  0210   61 71  350/ 16/ 19 1022.9
Buoy 41025       0200   56 78  350/ 17/ 23 1021.4
Cape Lookout NC  0200   52     360/  7/  7 1022.8R
Buoy 41002       0210   67     340/ 19/ 23 1020.3
Buoy 41010       0200   71     350/ 12/ 16   N/A
St Augustine FL  0200   64 64   30/ 15/ 16 1022.8R


$$




USA.gov is the U.S. government's official web portal to all federal, state and local government web resources and services.